Find Local Weather

World > North America > United States > Kansas

Lake Wabaunsee, Kansas Regional Weather

Lat: 38.87N, Lon: 96.2W
Wx Zone: KSZ038
Feedback

Lake Wabaunsee, KS Regional Weather

Expires:201903201400;;651448
ASUS43 KEAX 201310
RWREAX

WEATHER ROUNDUP FOR EASTERN KANSAS AND NORTHWEST MISSOURI
NATIONAL WEATHER SERVICE KANSAS CITY/PLEASANT HILL MO
800 AM CDT WED MAR 20 2019


IAZ060-094-KSZ022-034>040-054-083-096-NEZ052-066-093-201400- 
...KANSAS...SOUTHEAST NEBRASKA AND IOWA...
  
CITY           SKY/WX    TMP DP  RH WIND       PRES   REMARKS
TOPEKA         CLOUDY    43  39  86 NW6       30.19R                  
MANHATTAN      CLOUDY    42  39  89 VRB5      30.21R                  
EMPORIA        CLOUDY    42  41  96 NW9       30.20R                  
CHANUTE        CLOUDY    45  41  86 NW12      30.20R                  
WICHITA        MOCLDY    38  34  85 W10       30.25R WCI  31          
OMAHA          CLOUDY    36  30  79 W9        30.15F WCI  29          
LINCOLN        CLOUDY    35  31  85 W6        30.19S WCI  30          
FALLS CITY     CLOUDY    36  35  96 NW9       30.17R FOG     WCI  29  
LAMONI         CLEAR     35  34  96 W7        30.10S FOG     WCI  29  
DES MOINES     FOG       34  34 100 NW10      30.10S VSB 1/8 WCI  26  

$$

  

SKY/WX - Weather  TMP - Temperature  DP - Dew Point  RH - Relative Humidity
WIND - Wind Direction/Speed PRES - Barometric Pressure VSB - Visibility
WCI - Wind Chill Index E13G22 Wind - East Wind 13 mph/Gusts of 22 mph